Midland Airpark, TX

3:12 AM CDT on August 19, 2017 (GMT -0500)
Midland

Weather History for KMDD - May, 2013

Change the Weather History Date:

Thursday, May 16, 2013

  Actual Average (KMAF) Record (KMAF)
Temperature  
Mean Temperature 82 °F -  
Max Temperature 101 °F 87 °F 102 °F (2000)
Min Temperature 63 °F 59 °F 42 °F (1945)
Cooling Degree Days 16    
Growing Degree Days 32 (Base 50)    
Moisture  
Dew Point 37 °F    
Average Humidity 24    
Maximum Humidity 54    
Minimum Humidity 7    
Precipitation  
Precipitation 0.00 in - - ()
Sea Level Pressure  
Sea Level Pressure 29.81 in    
Wind  
Wind Speed 8 mph (WSW)    
Max Wind Speed 14 mph    
Max Gust Speed 22 mph    
Visibility 10 miles    
Events      
Averages and records for this station are not official NWS values.
T = Trace of Precipitation, MM = Missing Value Source: NWS Daily Summary

Daily Weather History Graph

Daily Weather History Graph

Search for Another Location

Airport or City:

Trip Planner

Search our weather history database for the weather conditions in past years. The results will help you decide how hot, cold, wet, or windy it might be!

Date:

Astronomy

May. 16, 2013 Rise Set
Actual Time 6:50 AM CDT 8:39 PM CDT
Civil Twilight 6:23 AM CDT 9:06 PM CDT
Nautical Twilight 5:50 AM CDT 9:39 PM CDT
Astronomical Twilight 5:16 AM CDT 10:14 PM CDT
Moon 12:18 PM CDT (5/16) 1:07 AM CDT (5/16)
Length of Visible Light 14h 43m
Length of Day
13h 49m
Waxing Crescent, 36% of the Moon is Illuminated
May 16
Waxing Crescent
May 17
First Quarter
May 24
Full
May 31
Last Quarter
Jun 8
New

Hourly Weather History & Observations

Time (CDT) Temp. Dew Point Humidity Pressure Visibility Wind Dir Wind Speed Gust Speed Precip Events Conditions
12:15 AM 73.8 °F 46.4 °F 38% 29.82 in 10.0 mi South 11.5 mph - N/A   Clear
12:35 AM 73.4 °F 46.8 °F 39% 29.82 in 10.0 mi South 11.5 mph - N/A   Clear
12:55 AM 73.4 °F 46.2 °F 38% 29.81 in 10.0 mi South 10.4 mph - N/A   Clear
1:15 AM 74.5 °F 44.6 °F 34% 29.81 in 10.0 mi South 11.5 mph - N/A   Clear
1:35 AM 74.5 °F 44.1 °F 34% 29.81 in 10.0 mi South 8.1 mph - N/A   Clear
1:55 AM 73.8 °F 44.4 °F 35% 29.80 in 10.0 mi South 6.9 mph - N/A   Clear
2:15 AM 74.5 °F 43.9 °F 33% 29.79 in 10.0 mi SSW 9.2 mph - N/A   Clear
2:35 AM 74.5 °F 43.9 °F 33% 29.78 in 10.0 mi South 9.2 mph - N/A   Clear
2:55 AM 73.2 °F 44.8 °F 36% 29.78 in 10.0 mi SSW 8.1 mph - N/A   Clear
3:15 AM 72.7 °F 45.1 °F 37% 29.77 in 10.0 mi SSW 6.9 mph - N/A   Clear
3:35 AM 72.1 °F 45.7 °F 39% 29.77 in 10.0 mi SSW 6.9 mph - N/A   Clear
3:55 AM 72.0 °F 46.4 °F 40% 29.77 in 10.0 mi SSW 9.2 mph - N/A   Clear
4:15 AM 71.6 °F 47.8 °F 43% 29.77 in 10.0 mi SSW 8.1 mph - N/A   Clear
4:35 AM 70.9 °F 49.1 °F 46% 29.78 in 10.0 mi SSW 6.9 mph - N/A   Clear
4:55 AM 70.2 °F 49.1 °F 47% 29.78 in 10.0 mi SW 6.9 mph - N/A   Clear
5:15 AM 70.0 °F 48.6 °F 46% 29.79 in 10.0 mi SW 4.6 mph - N/A   Clear
5:35 AM 69.3 °F 48.6 °F 48% 29.79 in 10.0 mi WSW 4.6 mph - N/A   Clear
5:55 AM 68.2 °F 48.2 °F 49% 29.79 in 10.0 mi WSW 4.6 mph - N/A   Clear
6:15 AM 67.6 °F 48.2 °F 50% 29.79 in 10.0 mi WSW 4.6 mph - N/A   Clear
6:35 AM 68.0 °F 48.7 °F 50% 29.80 in 10.0 mi West 6.9 mph - N/A   Clear
6:55 AM 67.5 °F 49.1 °F 52% 29.81 in 10.0 mi West 5.8 mph - N/A   Clear
7:15 AM 63.5 °F 46.6 °F 54% 29.82 in 10.0 mi NW 3.5 mph - N/A   Clear
7:35 AM 65.5 °F 47.3 °F 52% 29.84 in 10.0 mi NE 4.6 mph - N/A   Clear
7:55 AM 66.7 °F 45.5 °F 46% 29.85 in 10.0 mi NNW 4.6 mph - N/A   Clear
8:15 AM 68.2 °F 44.6 °F 43% 29.85 in 10.0 mi Calm Calm - N/A   Clear
8:35 AM 70.5 °F 44.2 °F 39% 29.85 in 10.0 mi NW 4.6 mph - N/A   Clear
8:55 AM 73.2 °F 43.9 °F 35% 29.85 in 10.0 mi WNW 5.8 mph - N/A   Clear
9:15 AM 75.7 °F 43.7 °F 32% 29.85 in 10.0 mi West 6.9 mph - N/A   Clear
9:35 AM 79.3 °F 43.5 °F 28% 29.86 in 10.0 mi NW 5.8 mph - N/A   Clear
9:55 AM 84.6 °F 39.7 °F 20% 29.86 in 10.0 mi NNW 10.4 mph - N/A   Clear
10:15 AM 86.4 °F 37.9 °F 18% 29.87 in 10.0 mi NNW 11.5 mph 17.3 mph N/A   Clear
10:35 AM 86.2 °F 38.1 °F 18% 29.87 in 10.0 mi NNW 11.5 mph 17.3 mph N/A   Clear
10:55 AM 86.7 °F 39.2 °F 19% 29.87 in 10.0 mi North 8.1 mph - N/A   Clear
11:15 AM 89.2 °F 36.7 °F 16% 29.87 in 10.0 mi North 8.1 mph - N/A   Clear
11:35 AM 89.1 °F 39.4 °F 17% 29.87 in 10.0 mi NE 9.2 mph - N/A   Clear
11:55 AM 90.9 °F 41.2 °F 18% 29.87 in 10.0 mi NNE 10.4 mph - N/A   Clear
12:15 PM 91.4 °F 41.0 °F 17% 29.87 in 10.0 mi North 5.8 mph - N/A   Clear
12:35 PM 91.8 °F 41.4 °F 17% 29.87 in 10.0 mi Calm Calm - N/A   Clear
1:35 PM 93.7 °F 39.0 °F 15% 29.85 in 10.0 mi Calm Calm - N/A   Clear
1:55 PM 95.4 °F 38.3 °F 14% 29.85 in 10.0 mi NW 6.9 mph - N/A   Clear
2:15 PM 95.7 °F 37.8 °F 13% 29.84 in 10.0 mi West 10.4 mph - N/A   Clear
2:35 PM 96.4 °F 37.2 °F 13% 29.83 in 10.0 mi SW 5.8 mph - N/A   Clear
2:55 PM 97.7 °F 37.4 °F 12% 29.82 in 10.0 mi Calm Calm - N/A   Clear
3:15 PM 97.3 °F 36.9 °F 12% 29.82 in 10.0 mi North 4.6 mph - N/A   Clear
3:35 PM 99.0 °F 36.9 °F 12% 29.81 in 10.0 mi WNW 8.1 mph - N/A   Clear
3:55 PM 98.4 °F 35.4 °F 11% 29.80 in 10.0 mi West 5.8 mph - N/A   Clear
4:15 PM 99.1 °F 35.2 °F 11% 29.78 in 10.0 mi NNW 6.9 mph - N/A   Clear
4:35 PM 99.3 °F 33.8 °F 10% 29.78 in 10.0 mi NW 4.6 mph 16.1 mph N/A   Clear
4:55 PM 100.2 °F 29.8 °F 8% 29.77 in 10.0 mi West 8.1 mph - N/A   Clear
5:15 PM 100.6 °F 26.8 °F 7% 29.76 in 10.0 mi WSW 10.4 mph - N/A   Clear
5:35 PM 100.4 °F 25.3 °F 7% 29.76 in 10.0 mi WSW 13.8 mph 17.3 mph N/A   Clear
5:55 PM 100.6 °F 25.0 °F 7% 29.76 in 10.0 mi WSW 9.2 mph - N/A   Clear
6:15 PM 100.2 °F 24.3 °F 7% 29.76 in 10.0 mi WSW 13.8 mph 21.9 mph N/A   Clear
6:35 PM 99.5 °F 24.3 °F 7% 29.75 in 10.0 mi WSW 9.2 mph - N/A   Clear
6:55 PM 99.3 °F 23.9 °F 7% 29.75 in 10.0 mi WSW 11.5 mph - N/A   Clear
7:15 PM 98.6 °F 25.2 °F 7% 29.75 in 10.0 mi WSW 6.9 mph - N/A   Clear
7:35 PM 98.1 °F 24.8 °F 7% 29.75 in 10.0 mi WSW 10.4 mph - N/A   Clear
7:55 PM 97.3 °F 23.9 °F 7% 29.75 in 10.0 mi WSW 10.4 mph - N/A   Clear
8:15 PM 96.1 °F 22.8 °F 7% 29.76 in 10.0 mi WSW 6.9 mph - N/A   Clear
8:35 PM 93.9 °F 22.8 °F 8% 29.76 in 10.0 mi WSW 6.9 mph - N/A   Clear
8:55 PM 91.8 °F 23.4 °F 8% 29.77 in 10.0 mi SW 3.5 mph - N/A   Clear
9:15 PM 90.1 °F 26.4 °F 10% 29.77 in 10.0 mi SW 4.6 mph - N/A   Clear
9:55 PM 88.0 °F 25.2 °F 10% 29.78 in 10.0 mi SW 4.6 mph - N/A   Clear
10:15 PM 85.8 °F 24.8 °F 11% 29.79 in 10.0 mi SW 4.6 mph - N/A   Clear
10:35 PM 85.8 °F 23.2 °F 10% 29.80 in 10.0 mi WSW 5.8 mph - N/A   Clear
10:55 PM 85.3 °F 22.8 °F 10% 29.80 in 10.0 mi WSW 6.9 mph - N/A   Clear
11:15 PM 83.7 °F 22.8 °F 11% 29.81 in 10.0 mi WSW 8.1 mph - N/A   Clear
11:35 PM 84.2 °F 22.1 °F 10% 29.80 in 10.0 mi WSW 8.1 mph - N/A   Clear
11:55 PM 83.3 °F 21.7 °F 10% 29.81 in 10.0 mi WSW 8.1 mph - N/A   Clear